• In Hungary
  • List of Countries
  • For 7 days
  • Water Temperature
  • Satellite Maps
  • Weather Map
  • News
  • Weather Widgets
  • user-avatar
    Login

    Hourly Weather Novotroickaya

    Today, 22 September, Saturday

    Time Temperature Precipitation Wind Pressure Humidity
    00:00 +8°C° 0 mm 2 mps 737 mmHg 91%
    01:00 +8°C° 0 mm 2 mps 738 mmHg 92%
    02:00 +8°C° 0 mm 2 mps 738 mmHg 93%
    03:00 +7°C° 0 mm 2 mps 738 mmHg 93%
    04:00 +7°C° 0 mm 2 mps 739 mmHg 94%
    05:00 +7°C° 0 mm 2 mps 739 mmHg 93%
    06:00 +7°C° 0 mm 2 mps 740 mmHg 93%
    07:00 +8°C° 0 mm 2 mps 740 mmHg 93%
    08:00 +9°C° 0 mm 2 mps 740 mmHg 85%
    09:00 +11°C° 0 mm 3 mps 741 mmHg 78%
    10:00 +12°C° 0 mm 3 mps 741 mmHg 71%
    11:00 +13°C° 0 mm 3 mps 741 mmHg 65%
    12:00 +16°C° 0 mm 3 mps 741 mmHg 58%
    13:00 +17°C° 0 mm 4 mps 741 mmHg 52%
    14:00 +17°C° 0 mm 4 mps 741 mmHg 51%
    15:00 +17°C° 0 mm 4 mps 741 mmHg 50%
    16:00 +17°C° 0 mm 4 mps 741 mmHg 49%
    17:00 +16°C° 0 mm 3 mps 741 mmHg 56%
    18:00 +14°C° 0 mm 2 mps 741 mmHg 63%
    19:00 +13°C° 0 mm 1 mps 741 mmHg 70%
    20:00 +12°C° 0 mm 1 mps 741 mmHg 73%
    21:00 +12°C° 0 mm 1 mps 741 mmHg 76%
    22:00 +12°C° 0 mm 1 mps 741 mmHg 79%
    23:00 +12°C° 0 mm 1 mps 741 mmHg 81%

    Tomorrow, 23 September, Sunday

    Time Temperature Precipitation Wind Pressure Humidity
    00:00 +12°C° 0 mm 1 mps 741 mmHg 83%
    01:00 +12°C° 0 mm 1 mps 741 mmHg 85%
    02:00 +12°C° 0 mm 1 mps 741 mmHg 87%
    03:00 +12°C° 0 mm 1 mps 741 mmHg 88%
    04:00 +13°C° 0 mm 1 mps 741 mmHg 89%
    05:00 +13°C° 0 mm 1 mps 741 mmHg 90%
    06:00 +13°C° 0 mm 1 mps 741 mmHg 91%
    07:00 +13°C° 0 mm 1 mps 741 mmHg 93%
    08:00 +15°C° 0 mm 1 mps 742 mmHg 89%
    09:00 +16°C° 0 mm 1 mps 742 mmHg 86%
    10:00 +18°C° 0 mm 1 mps 742 mmHg 82%
    11:00 +19°C° 0 mm 1 mps 741 mmHg 78%
    12:00 +20°C° 0 mm 1 mps 741 mmHg 74%
    13:00 +21°C° 0 mm 1 mps 741 mmHg 71%
    14:00 +21°C° 0 mm 1 mps 741 mmHg 69%
    15:00 +22°C° 0 mm 1 mps 741 mmHg 68%
    16:00 +22°C° 0 mm 1 mps 741 mmHg 66%
    17:00 +20°C° 0 mm 1 mps 741 mmHg 72%
    18:00 +19°C° 0 mm 1 mps 741 mmHg 79%
    19:00 +16°C° 0 mm 1 mps 741 mmHg 85%
    20:00 +16°C° 0 mm 1 mps 741 mmHg 86%
    21:00 +15°C° 0 mm 1 mps 741 mmHg 87%
    22:00 +15°C° 0 mm 2 mps 741 mmHg 89%
    23:00 +15°C° 0 mm 2 mps 740 mmHg 89%

    Day after tomorrow, 24 September, Monday

    Time Temperature Precipitation Wind Pressure Humidity
    00:00 +15°C° 0 mm 2 mps 740 mmHg 89%
    01:00 +14°C° 0 mm 2 mps 740 mmHg 89%
    02:00 +14°C° 0 mm 2 mps 740 mmHg 88%
    03:00 +14°C° 0 mm 2 mps 740 mmHg 87%
    04:00 +15°C° 0 mm 2 mps 740 mmHg 87%
    05:00 +14°C° 0 mm 2 mps 740 mmHg 87%
    06:00 +14°C° 0 mm 2 mps 740 mmHg 87%
    07:00 +14°C° 0 mm 2 mps 739 mmHg 87%
    08:00 +16°C° 0 mm 3 mps 739 mmHg 79%
    09:00 +18°C° 0 mm 4 mps 739 mmHg 71%
    10:00 +19°C° 0 mm 5 mps 739 mmHg 63%
    11:00 +20°C° 0 mm 5 mps 739 mmHg 58%
    12:00 +21°C° 0 mm 6 mps 739 mmHg 54%
    13:00 +22°C° 0 mm 6 mps 739 mmHg 49%
    14:00 +22°C° 0 mm 6 mps 739 mmHg 48%
    15:00 +22°C° 0 mm 5 mps 738 mmHg 48%
    16:00 +22°C° 0 mm 5 mps 738 mmHg 47%
    17:00 +21°C° 0 mm 4 mps 738 mmHg 51%
    18:00 +19°C° 0 mm 4 mps 738 mmHg 54%
    19:00 +17°C° 0 mm 3 mps 738 mmHg 58%
    20:00 +16°C° 0 mm 3 mps 738 mmHg 57%
    21:00 +16°C° 0 mm 3 mps 737 mmHg 57%
    22:00 +14°C° 0 mm 3 mps 737 mmHg 56%
    23:00 +14°C° 0 mm 4 mps 737 mmHg 55%

    25 September, Tuesday

    Time Temperature Precipitation Wind Pressure Humidity
    00:00 +14°C° 0 mm 4 mps 737 mmHg 55%
    01:00 +14°C° 0 mm 4 mps 737 mmHg 54%
    02:00 +14°C° 0 mm 4 mps 737 mmHg 54%
    03:00 +14°C° 0 mm 4 mps 737 mmHg 54%
    04:00 +14°C° 0 mm 4 mps 737 mmHg 53%
    05:00 +14°C° 0 mm 4 mps 737 mmHg 55%
    06:00 +14°C° 0 mm 4 mps 737 mmHg 56%
    07:00 +14°C° 0 mm 4 mps 737 mmHg 57%
    08:00 +15°C° 0 mm 5 mps 737 mmHg 55%
    09:00 +17°C° 0 mm 6 mps 737 mmHg 52%
    10:00 +18°C° 0 mm 7 mps 736 mmHg 50%
    11:00 +20°C° 0 mm 7 mps 736 mmHg 50%
    12:00 +21°C° 0 mm 8 mps 736 mmHg 50%
    13:00 +22°C° 0 mm 8 mps 736 mmHg 50%
    14:00 +21°C° 0 mm 7 mps 736 mmHg 53%
    15:00 +21°C° 0 mm 6 mps 736 mmHg 55%
    16:00 +20°C° 0 mm 5 mps 735 mmHg 58%
    17:00 +19°C° 0 mm 5 mps 735 mmHg 59%
    18:00 +19°C° 0 mm 5 mps 735 mmHg 61%
    19:00 +18°C° 0 mm 4 mps 735 mmHg 62%
    20:00 +17°C° 0 mm 5 mps 735 mmHg 60%
    21:00 +16°C° 0 mm 5 mps 735 mmHg 59%
    22:00 +16°C° 0 mm 6 mps 735 mmHg 57%
    23:00 +16°C° 0 mm 6 mps 734 mmHg 57%

    26 September, Wednesday

    Time Temperature Precipitation Wind Pressure Humidity
    00:00 +16°C° 0 mm 6 mps 734 mmHg 56%
    01:00 +16°C° 0 mm 6 mps 734 mmHg 56%
    02:00 +16°C° 0 mm 6 mps 734 mmHg 57%
    03:00 +15°C° 0 mm 5 mps 734 mmHg 58%
    04:00 +15°C° 0 mm 5 mps 734 mmHg 59%
    05:00 +15°C° 0 mm 5 mps 735 mmHg 58%
    06:00 +15°C° 0 mm 5 mps 735 mmHg 57%
    07:00 +15°C° 0 mm 6 mps 735 mmHg 56%
    08:00 +14°C° 0.2 mm 5 mps 735 mmHg 61%
    09:00 +14°C° 0.2 mm 5 mps 736 mmHg 67%
    10:00 +13°C° 0.2 mm 5 mps 736 mmHg 72%
    11:00 +13°C° 0.1 mm 5 mps 737 mmHg 69%
    12:00 +13°C° 0.1 mm 5 mps 737 mmHg 66%
    13:00 +13°C° 0.1 mm 5 mps 738 mmHg 63%
    14:00 +14°C° 0 mm 5 mps 738 mmHg 59%
    15:00 +14°C° 0 mm 5 mps 739 mmHg 54%
    16:00 +14°C° 0 mm 5 mps 739 mmHg 49%
    17:00 +13°C° 0.1 mm 4 mps 739 mmHg 53%
    18:00 +12°C° 0.1 mm 4 mps 740 mmHg 57%
    19:00 +11°C° 0.1 mm 3 mps 740 mmHg 60%
    20:00 +11°C° 0.1 mm 3 mps 740 mmHg 64%
    21:00 +10°C° 0.1 mm 3 mps 741 mmHg 67%
    22:00 +10°C° 0.1 mm 3 mps 741 mmHg 70%
    23:00 +10°C° 0 mm 2 mps 741 mmHg 71%

    27 September, Thursday

    Time Temperature Precipitation Wind Pressure Humidity
    00:00 +9°C° 0 mm 2 mps 742 mmHg 72%
    01:00 +9°C° 0 mm 2 mps 742 mmHg 72%
    02:00 +9°C° 0 mm 2 mps 742 mmHg 72%
    03:00 +8°C° 0 mm 2 mps 743 mmHg 73%
    04:00 +9°C° 0 mm 1 mps 743 mmHg 73%
    05:00 +9°C° 0 mm 1 mps 743 mmHg 73%
    06:00 +8°C° 0 mm 1 mps 743 mmHg 73%
    07:00 +8°C° 0 mm 1 mps 744 mmHg 74%
    08:00 +8°C° 0 mm 2 mps 744 mmHg 65%
    09:00 +10°C° 0 mm 3 mps 744 mmHg 57%
    10:00 +11°C° 0 mm 4 mps 744 mmHg 48%
    11:00 +11°C° 0 mm 4 mps 744 mmHg 44%
    12:00 +12°C° 0 mm 4 mps 745 mmHg 40%
    13:00 +12°C° 0 mm 4 mps 745 mmHg 36%
    14:00 +12°C° 0 mm 3 mps 745 mmHg 37%
    15:00 +12°C° 0 mm 3 mps 744 mmHg 38%
    16:00 +12°C° 0 mm 3 mps 744 mmHg 39%
    17:00 +12°C° 0 mm 2 mps 745 mmHg 43%
    18:00 +9°C° 0 mm 2 mps 745 mmHg 47%
    19:00 +9°C° 0 mm 1 mps 745 mmHg 51%
    20:00 +9°C° 0 mm 1 mps 745 mmHg 53%
    21:00 +8°C° 0 mm 1 mps 745 mmHg 54%
    22:00 +8°C° 0 mm 1 mps 745 mmHg 56%
    23:00 +7°C° 0 mm 2 mps 745 mmHg 58%
    Show more